Weather History for KGAF - August, 2013

Change the Weather History Date:

Wednesday, August 7, 2013

  Actual Average Record
Temperature  
Mean Temperature 57 °F -  
Max Temperature 66 °F 83 °F 102 °F (1978)
Min Temperature 48 °F 57 °F 42 °F (1972)
Degree Days  
Heating Degree Days 8    
Growing Degree Days 7 (Base 50)    
Moisture  
Dew Point 50 °F    
Average Humidity 78    
Maximum Humidity 100    
Minimum Humidity 55    
Precipitation  
Precipitation 0.00 in - - ()
Sea Level Pressure  
Sea Level Pressure 30.00 in    
Wind  
Wind Speed 5 mph (North)    
Max Wind Speed 8 mph    
Max Gust Speed -    
Visibility 10 miles    
Events Rain    
Averages and records for this station are not official NWS values.
T = Trace of Precipitation, MM = Missing Value Source: NWS Daily Summary

Daily Weather History Graph

Daily Weather History Graph

Search for Another Location

Airport or City:

Trip Planner

Search our weather history database for the weather conditions in past years. The results will help you decide how hot, cold, wet, or windy it might be!

Date:

Astronomy

Aug. 07, 2013 Rise Set
Actual Time 6:12 AM CDT 8:56 PM CDT
Civil Twilight 5:36 AM CDT 9:32 PM CDT
Nautical Twilight 4:51 AM CDT 10:17 PM CDT
Astronomical Twilight 3:56 AM CDT 11:11 PM CDT
Moon 7:11 AM CDT (8/7) 8:52 PM CDT (8/7)
Length of Visible Light 15h 55m
Length of Day
14h 44m
New Moon, 1% of the Moon is Illuminated
Aug 7
New Moon
Aug 14
First Quarter
Aug 20
Full
Aug 28
Last Quarter
Sep 5
New

Hourly Weather History & Observations

Time (CDT) Temp. Dew Point Humidity Pressure Visibility Wind Dir Wind Speed Gust Speed Precip Events Conditions
12:15 AM 53.6 °F 48.2 °F 82% 29.91 in 10.0 mi NW 5.8 mph - N/A   Clear
12:35 AM 53.6 °F 50.0 °F 88% 29.92 in 10.0 mi NW 6.9 mph - N/A   Clear
12:55 AM 51.8 °F 48.2 °F 88% 29.92 in 10.0 mi NW 6.9 mph - N/A   Clear
1:15 AM 53.6 °F 50.0 °F 88% 29.93 in 10.0 mi NW 3.5 mph - N/A   Clear
1:35 AM 53.6 °F 50.0 °F 88% 29.93 in 10.0 mi NW 4.6 mph - N/A   Clear
1:55 AM 53.6 °F 50.0 °F 88% 29.94 in 10.0 mi NW 5.8 mph - N/A   Clear
2:15 AM 53.6 °F 50.0 °F 88% 29.94 in 10.0 mi NW 6.9 mph - N/A   Clear
2:35 AM 51.8 °F 50.0 °F 94% 29.94 in 10.0 mi NNW 6.9 mph - N/A   Clear
2:55 AM 50.0 °F 50.0 °F 100% 29.95 in 10.0 mi NW 6.9 mph - N/A   Clear
3:15 AM 50.0 °F 48.2 °F 94% 29.95 in 10.0 mi NNW 6.9 mph - N/A   Clear
3:35 AM 50.0 °F 50.0 °F 100% 29.95 in 10.0 mi NNW 5.8 mph - N/A   Clear
3:55 AM 50.0 °F 48.2 °F 94% 29.95 in 10.0 mi NNW 3.5 mph - N/A   Clear
4:15 AM 50.0 °F 48.2 °F 94% 29.96 in 10.0 mi NNW 5.8 mph - N/A   Clear
4:35 AM 48.2 °F 48.2 °F 100% 29.97 in 10.0 mi NNW 6.9 mph - N/A   Clear
4:55 AM 48.2 °F 48.2 °F 100% 29.97 in 10.0 mi NNW 5.8 mph - N/A   Clear
5:15 AM 48.2 °F 48.2 °F 100% 29.97 in 10.0 mi NNW 6.9 mph - N/A   Clear
5:35 AM 48.2 °F 48.2 °F 100% 29.98 in 10.0 mi NW 6.9 mph - N/A   Clear
5:55 AM 48.2 °F 48.2 °F 100% 29.99 in 10.0 mi NW 5.8 mph - N/A   Clear
6:15 AM 48.2 °F 48.2 °F 100% 29.99 in 10.0 mi NW 5.8 mph - N/A   Partly Cloudy
6:35 AM 50.0 °F 48.2 °F 94% 29.99 in 10.0 mi WSW 3.5 mph - N/A   Mostly Cloudy
6:55 AM 50.0 °F 50.0 °F 100% 29.99 in 10.0 mi Calm Calm - N/A   Overcast
7:15 AM 50.0 °F 50.0 °F 100% 30.00 in 10.0 mi Calm Calm - N/A   Mostly Cloudy
7:35 AM 53.6 °F 50.0 °F 88% 30.01 in 10.0 mi NW 3.5 mph - N/A   Mostly Cloudy
7:55 AM 53.6 °F 50.0 °F 88% 30.01 in 10.0 mi NNW 4.6 mph - N/A   Mostly Cloudy
8:15 AM 53.6 °F 50.0 °F 88% 30.01 in 10.0 mi NNW 3.5 mph - N/A   Overcast
8:35 AM 53.6 °F 50.0 °F 88% 30.02 in 10.0 mi NNW 4.6 mph - N/A   Overcast
8:55 AM 55.4 °F 50.0 °F 82% 30.02 in 10.0 mi North 5.8 mph - N/A   Mostly Cloudy
9:15 AM 55.4 °F 48.2 °F 77% 30.02 in 10.0 mi NNE 4.6 mph - N/A   Clear
9:35 AM 57.2 °F 48.2 °F 72% 30.02 in 10.0 mi NNW 5.8 mph - N/A   Scattered Clouds
9:55 AM 57.2 °F 48.2 °F 72% 30.02 in 10.0 mi NE 4.6 mph - N/A   Mostly Cloudy
10:15 AM 57.2 °F 46.4 °F 67% 30.02 in 10.0 mi North 4.6 mph - N/A   Mostly Cloudy
10:35 AM 59.0 °F 46.4 °F 63% 30.02 in 10.0 mi NE 4.6 mph - N/A   Mostly Cloudy
10:55 AM 57.2 °F 48.2 °F 72% 30.02 in 10.0 mi ENE 5.8 mph - N/A   Mostly Cloudy
11:15 AM 59.0 °F 44.6 °F 59% 30.03 in 10.0 mi ENE 4.6 mph - N/A   Mostly Cloudy
11:35 AM 57.2 °F 46.4 °F 67% 30.03 in 10.0 mi Calm Calm - N/A Rain Light Rain
11:55 AM 57.2 °F 46.4 °F 67% 30.03 in 10.0 mi Calm Calm - N/A   Mostly Cloudy
12:15 PM 59.0 °F 46.4 °F 63% 30.03 in 10.0 mi Calm Calm - N/A   Scattered Clouds
12:35 PM 59.0 °F 46.4 °F 63% 30.03 in 10.0 mi East 3.5 mph - N/A   Mostly Cloudy
12:55 PM 60.8 °F 46.4 °F 59% 30.03 in 10.0 mi SE 4.6 mph - N/A   Mostly Cloudy
1:15 PM 62.6 °F 46.4 °F 55% 30.03 in 10.0 mi Calm Calm - N/A   Mostly Cloudy
1:35 PM 62.6 °F 48.2 °F 59% 30.02 in 10.0 mi ENE 3.5 mph - N/A   Scattered Clouds
1:55 PM 62.6 °F 48.2 °F 59% 30.02 in 10.0 mi South 3.5 mph - N/A   Clear
2:15 PM 64.4 °F 50.0 °F 59% 30.01 in 10.0 mi ESE 3.5 mph - N/A   Scattered Clouds
2:35 PM 64.4 °F 48.2 °F 56% 30.01 in 10.0 mi Calm Calm - N/A   Mostly Cloudy
2:55 PM 64.4 °F 50.0 °F 59% 30.01 in 10.0 mi Calm Calm - N/A   Mostly Cloudy
3:15 PM 64.4 °F 50.0 °F 59% 30.01 in 10.0 mi Calm Calm - N/A   Mostly Cloudy
3:35 PM 64.4 °F 50.0 °F 59% 30.01 in 10.0 mi NNW 5.8 mph - N/A   Mostly Cloudy
3:55 PM 64.4 °F 50.0 °F 59% 30.01 in 10.0 mi Calm Calm - N/A   Scattered Clouds
4:15 PM 66.2 °F 51.8 °F 60% 30.01 in 10.0 mi NNE 4.6 mph - N/A   Partly Cloudy
4:35 PM 66.2 °F 51.8 °F 60% 30.00 in 10.0 mi NE 6.9 mph - N/A   Clear
4:55 PM 66.2 °F 50.0 °F 56% 30.00 in 10.0 mi ENE 3.5 mph - N/A   Clear
5:15 PM 66.2 °F 51.8 °F 60% 30.00 in 10.0 mi North 6.9 mph - N/A   Partly Cloudy
5:35 PM 64.4 °F 50.0 °F 59% 30.00 in 10.0 mi NE 6.9 mph - N/A   Clear
5:55 PM 64.4 °F 51.8 °F 64% 30.00 in 10.0 mi NE 8.1 mph - N/A   Clear
6:15 PM 64.4 °F 50.0 °F 59% 30.00 in 10.0 mi NE 5.8 mph - N/A   Scattered Clouds
6:35 PM 64.4 °F 51.8 °F 64% 30.00 in 10.0 mi NE 6.9 mph - N/A   Partly Cloudy
6:55 PM 64.4 °F 51.8 °F 64% 30.00 in 10.0 mi NE 5.8 mph - N/A   Clear
7:15 PM 64.4 °F 51.8 °F 64% 30.01 in 10.0 mi NE 3.5 mph - N/A   Clear
7:35 PM 62.6 °F 53.6 °F 72% 30.01 in 10.0 mi ENE 3.5 mph - N/A   Partly Cloudy
7:55 PM 62.6 °F 53.6 °F 72% 30.01 in 10.0 mi NE 5.8 mph - N/A   Scattered Clouds
8:15 PM 62.6 °F 53.6 °F 72% 30.01 in 10.0 mi North 5.8 mph - N/A   Mostly Cloudy
8:35 PM 59.0 °F 53.6 °F 82% 30.00 in 10.0 mi NNE 5.8 mph - N/A   Scattered Clouds
8:55 PM 59.0 °F 53.6 °F 82% 30.01 in 10.0 mi NNE 4.6 mph - N/A   Clear
9:15 PM 59.0 °F 53.6 °F 82% 30.01 in 10.0 mi North 4.6 mph - N/A   Clear
9:35 PM 57.2 °F 53.6 °F 88% 30.02 in 10.0 mi NE 4.6 mph - N/A   Clear
9:55 PM 57.2 °F 53.6 °F 88% 30.02 in 10.0 mi NE 3.5 mph - N/A   Partly Cloudy
10:15 PM 55.4 °F 53.6 °F 94% 30.03 in 10.0 mi NNE 3.5 mph - N/A   Partly Cloudy
10:35 PM 55.4 °F 53.6 °F 94% 30.03 in 10.0 mi North 3.5 mph - N/A   Scattered Clouds
10:55 PM 55.4 °F 53.6 °F 94% 30.04 in 10.0 mi North 4.6 mph - N/A   Scattered Clouds
11:15 PM 53.6 °F 51.8 °F 94% 30.04 in 10.0 mi North 4.6 mph - N/A   Partly Cloudy
11:35 PM 53.6 °F 51.8 °F 94% 30.04 in 10.0 mi North 4.6 mph - N/A   Clear
11:55 PM 53.6 °F 51.8 °F 94% 30.04 in 10.0 mi North 4.6 mph - N/A   Clear